AMC-8 (GE-8)

导读

AMC-8(曾用名GE-8)是由SES运营的商用通信卫星,于2000年12月20日发射升空。该卫星定位于地球静止轨道,主要覆盖北美地区,提供电视广播、宽带网络传输及多媒体通信服务。它搭载了多台C波段转发器,信号覆盖范围广,服务稳定可靠,满足了北美地区对通信容量不断增长的需求,是SES AMC系列卫星中承担区域通信服务的重要一员,长期为广播电视、企业专网等领域提供优质中继传输支持。

Basic Information
目录编号:
26639
目录名称:
AMC-8 (GE-8)
国际标识:
2000-081B
轨道中心:
EARTH
卫星名称:
AMC-8 (GE-8)
卫星全名:
--
卫星状态:
在轨 (已飞行9308 天)
发射日期:
2000-12-20 UTC
国别 :
(SES)
星等 :
--
Orbit Information
数据来源 国际轨道数据 AOE轨道数据
星历时间 2026-06-15T04:06:36+0800
7小时前
查看轨道信息
2026-06-15T05:00:00+0800
6小时前
查看轨道信息
半长轴 42482.114km 42482.228km
偏心率 0.000433 0.0004413
轨道倾角 6.115° 6.116°
近地点辐角 260.695° 259.722°
升交点赤经 72.588° 72.587°
平近点角 265.275° 279.481°
近地点 36085.582km 36085.343km
远地点 36122.372km 36122.839km
周期 1452.342分钟 1452.348分钟
每日圈数 0.991502 0.991498
Detailed Information
使用方式:
暂无
2D Orbit Map
3D Orbit Map
Orbit Altitude Analysis Chart
Orbit Inclination Analysis Chart
Orbit Comprehensive Analysis Chart
View Comprehensive Chart